DW0000 Weather Reports


Display with metric or nautical units.
time (UTC)temp
F
wind
direction
speed
MPH
gust
MPH
rain 1hr
in
rain 24hr
in
rain mn
in
humidity
%
barometer
mb
20260831000005 61 264 17.0 35.0 0.00 0.09 0.07 81 1009.3
20260830235505 61 251 18.0 36.0 0.00 0.09 0.07 82 1009.3
20260830235005 61 257 21.0 31.0 0.00 0.09 0.07 81 1009.4
20260830230506 60 263 15.0 31.0 0.00 0.09 0.07 82 1009.6
20260830225505 60 262 18.0 30.0 0.00 0.09 0.07 82 1009.5
20260830223505 59 291 15.0 37.0 0.00 0.09 0.07 86 1009.5
20260830223005 58 258 17.0 30.0 0.00 0.09 0.07 86 1009.6
20260830221505 60 254 16.0 33.0 0.00 0.09 0.07 81 1009.6
20260830221008 59 256 18.0 32.0 0.00 0.09 0.07 81 1009.6
20260830220505 59 247 24.0 33.0 0.00 0.09 0.07 80 1009.7
20260830220005 59 266 15.0 36.0 0.00 0.09 0.07 80 1009.5
20260830215506 59 253 18.0 31.0 0.00 0.09 0.07 81 1009.5
20260830215005 59 257 14.0 29.0 0.00 0.09 0.07 82 1009.7
20260830214006 58 253 18.0 33.0 0.00 0.09 0.07 84 1009.8
20260830213504 58 257 15.0 28.0 0.00 0.09 0.07 85 1009.7
20260830212006 58 251 15.0 31.0 0.00 0.09 0.07 85 1009.8
20260830210506 57 259 13.0 25.0 0.00 0.09 0.07 87 1009.6
20260830205504 57 281 10.0 22.0 0.00 0.09 0.07 89 1009.7
20260830204504 56 252 14.0 24.0 0.01 0.09 0.07 90 1009.8
20260830203004 55 260 15.0 29.0 0.01 0.09 0.07 93 1009.6
20260830202005 55 266 13.0 23.0 0.01 0.09 0.07 94 1009.6
20260830200006 54 272 10.0 22.0 0.01 0.09 0.07 92 1009.7
20260830195504 55 264 16.0 29.0 0.01 0.09 0.07 92 1009.6
20260830195005 55 260 17.0 29.0 0.01 0.09 0.07 90 1009.6
20260830194505 55 257 18.0 29.0 0.00 0.08 0.06 90 1009.5
20260830194007 55 256 14.0 23.0 0.00 0.08 0.06 89 1009.6
20260830193504 55 282 16.0 26.0 0.00 0.08 0.06 89 1009.4
20260830193005 55 252 16.0 29.0 0.00 0.08 0.06 89 1009.4
20260830191504 55 254 14.0 28.0 0.00 0.08 0.06 90 1009.7
20260830190505 54 251 18.0 29.0 0.00 0.08 0.06 90 1009.4
20260830190005 55 271 15.0 30.0 0.00 0.08 0.06 90 1009.4
20260830185506 55 264 20.0 37.0 0.00 0.08 0.06 90 1009.1
20260830184004 55 256 12.0 26.0 0.00 0.08 0.06 89 1008.8
20260830183506 55 256 17.0 29.0 0.00 0.08 0.06 89 1009.0
20260830183005 54 270 17.0 25.0 0.00 0.08 0.06 88 1008.8
20260830181506 54 264 14.0 25.0 0.00 0.08 0.06 88 1008.7
20260830181005 54 269 10.0 18.0 0.00 0.08 0.06 87 1008.7
20260830180006 54 255 14.0 21.0 0.00 0.08 0.06 87 1008.7
20260830174004 54 251 16.0 29.0 0.00 0.08 0.06 85 1008.7
20260830173506 54 244 19.0 33.0 0.00 0.08 0.06 86 1008.8
20260830173004 54 240 20.0 33.0 0.00 0.08 0.06 86 1008.7
20260830172004 54 248 21.0 30.0 0.00 0.08 0.06 88 1008.5
20260830171506 54 248 16.0 32.0 0.00 0.08 0.06 92 1008.4
20260830171005 54 258 14.0 26.0 0.00 0.08 0.06 93 1008.4
20260830165007 54 254 15.0 25.0 0.00 0.08 0.06 94 1008.0
20260830162507 54 254 19.0 32.0 0.02 0.08 0.06 95 1007.8
20260830161506 54 259 14.0 26.0 0.02 0.08 0.06 95 1007.7
20260830161008 54 257 16.0 25.0 0.02 0.08 0.06 95 1007.7
20260830160007 53 257 16.0 28.0 0.02 0.08 0.06 94 1007.8
20260830155507 53 253 14.0 29.0 0.02 0.08 0.06 94 1007.8
20260830154507 54 259 20.0 31.0 0.02 0.08 0.06 95 1007.9
20260830153507 55 234 19.0 32.0 0.01 0.07 0.06 94 1008.1
20260830153006 55 253 18.0 31.0 0.00 0.06 0.04 94 1008.0
20260830151507 54 250 20.0 31.0 0.00 0.06 0.04 94 1008.0
20260830150008 55 254 18.0 28.0 0.04 0.06 0.04 95 1007.9
20260830144006 54 270 13.0 30.0 0.04 0.06 0.04 95 1007.9
20260830142507 54 253 16.0 28.0 0.04 0.06 0.04 94 1008.3
20260830142006 54 258 17.0 30.0 0.04 0.06 0.04 94 1007.9
20260830141506 54 260 17.0 29.0 0.04 0.06 0.04 94 1008.2
20260830140508 55 248 22.0 36.0 0.01 0.04 0.02 94 1008.2
20260830135506 55 253 13.0 31.0 0.00 0.03 0.01 93 1008.4
20260830132506 55 247 20.0 43.0 0.00 0.02 0.00 92 1008.4
20260830132008 55 248 17.0 32.0 0.00 0.02 0.00 92 1008.1
20260830131007 55 258 16.0 25.0 0.00 0.02 0.00 92 1008.2
20260830130007 55 254 16.0 30.0 0.00 0.02 0.00 91 1008.0
20260830125007 55 249 22.0 36.0 0.00 0.02 0.00 92 1008.0
20260830123506 55 259 20.0 29.0 0.00 0.02 0.00 93 1007.8
20260830123006 55 255 14.0 31.0 0.01 0.02 0.00 94 1007.7
20260830121006 54 289 13.0 25.0 0.01 0.02 0.00 94 1007.9
20260830120506 54 259 15.0 24.0 0.01 0.02 0.00 94 1007.9
20260830115506 55 251 16.0 30.0 0.01 0.02 0.02 94 1008.0
20260830115007 54 274 16.0 30.0 0.01 0.02 0.02 93 1007.8
20260830113506 55 239 20.0 32.0 0.01 0.02 0.02 92 1008.1
20260830112506 55 246 21.0 29.0 0.00 0.01 0.01 91 1008.0
20260830111506 56 249 16.0 26.0 0.00 0.01 0.01 90 1007.8
20260830111007 56 243 18.0 38.0 0.00 0.01 0.01 88 1007.9
20260830110506 56 244 25.0 37.0 0.00 0.01 0.01 88 1007.6
20260830110006 56 250 18.0 30.0 0.00 0.01 0.01 88 1007.9
20260830105505 56 242 18.0 29.0 0.00 0.01 0.01 88 1007.8
20260830104506 56 244 22.0 30.0 0.00 0.01 0.01 88 1007.6
20260830102505 55 252 17.0 29.0 0.00 0.02 0.01 90 1007.9
20260830101005 55 249 21.0 29.0 0.00 0.03 0.01 92 1007.7
20260830100506 55 251 21.0 29.0 0.00 0.03 0.01 93 1007.6
20260830100008 55 252 14.0 26.0 0.00 0.04 0.01 93 1007.8
20260830094008 56 248 25.0 38.0 0.00 0.07 0.01 88 1007.6
20260830092508 56 243 25.0 33.0 0.00 0.09 0.00 89 1007.6
20260830090006 56 250 22.0 36.0 0.00 0.14 0.00 90 1007.3
20260830085506 56 249 17.0 40.0 0.00 0.15 0.00 91 1007.2
20260830085005 56 261 17.0 29.0 0.00 0.15 0.00 92 1007.4
20260830084507 56 248 21.0 31.0 0.00 0.16 0.00 91 1007.3
20260830083506 56 246 21.0 38.0 0.00 0.18 0.00 91 1007.1
20260830083006 56 253 20.0 36.0 0.00 0.19 0.00 90 1007.2
20260830081008 56 251 20.0 36.0 0.00 0.24 0.00 91 1006.6
20260830074006 56 257 17.0 33.0 0.00 0.30 0.00 90 1006.6
20260830073505 56 250 21.0 35.0 0.00 0.31 0.00 90 1006.6
20260830073007 56 255 17.0 29.0 0.00 0.33 0.00 90 1006.6
20260830071006 56 247 20.0 37.0 0.00 0.40 0.00 88 1007.0
20260830064005 56 247 20.0 31.0 0.00 0.48 0.00 89 1006.8
20260830063006 56 246 15.0 32.0 0.00 0.51 0.00 89 1006.6
20260830061505 56 246 24.0 38.0 0.00 0.56 0.00 88 1006.6
20260830060506 56 243 18.0 33.0 0.00 0.58 0.00 89 1006.6
20260830060007 56 247 22.0 31.0 0.00 0.59 0.00 89 1006.6
20260830054505 57 252 20.0 33.0 0.00 0.64 0.00 88 1006.4
20260830054007 57 256 17.0 39.0 0.00 0.67 0.00 87 1006.5
20260830053506 57 251 18.0 36.0 0.00 0.69 0.00 88 1006.5
20260830052507 57 246 17.0 30.0 0.00 0.74 0.00 88 1006.4
20260830052006 57 249 19.0 32.0 0.00 0.76 0.00 88 1006.3
20260830051006 57 252 18.0 32.0 0.00 0.81 0.00 88 1006.2
20260830045007 57 248 20.0 31.0 0.00 0.89 0.00 86 1006.2
20260830044506 57 251 20.0 32.0 0.00 0.92 0.00 86 1006.1
20260830042507 59 246 16.0 37.0 0.00 1.01 0.00 82 1006.1
20260830040005 59 256 15.0 28.0 0.00 1.08 0.00 84 1006.4
20260830035507 59 255 17.0 31.0 0.00 1.09 0.00 83 1006.3
20260830034505 59 246 21.0 36.0 0.00 1.12 0.00 83 1006.4
20260830033507 59 243 22.0 31.0 0.00 1.15 0.00 84 1006.2
20260830032504 59 245 20.0 37.0 0.00 1.16 0.00 83 1006.4
20260830031507 58 249 21.0 32.0 0.00 1.18 0.00 85 1006.5
20260830031005 58 240 21.0 31.0 0.00 1.19 0.00 85 1006.4
20260830030505 59 251 20.0 31.0 0.00 1.20 0.00 84 1006.4
20260830030007 59 247 16.0 29.0 0.00 1.22 0.00 84 1006.3
20260830025506 59 242 19.0 26.0 0.00 1.23 0.00 85 1006.4
20260830025005 59 256 17.0 33.0 0.00 1.23 0.00 84 1006.3
20260830024506 59 242 22.0 33.0 0.00 1.24 0.00 86 1006.4
20260830022005 59 252 20.0 31.0 0.00 1.27 0.00 82 1006.5
20260830020504 60 245 24.0 33.0 0.00 1.28 0.00 81 1006.5
20260830020005 60 246 25.0 38.0 0.00 1.29 0.00 81 1006.4
20260830015507 60 242 25.0 37.0 0.00 1.29 0.00 82 1006.4
20260830014505 60 248 18.0 33.0 0.00 1.31 0.00 80 1006.4
20260830013005 62 249 15.0 29.0 0.00 1.36 0.00 81 1006.3
20260830012505 61 251 20.0 33.0 0.00 1.36 0.00 80 1006.5
20260830011505 61 264 14.0 35.0 0.00 1.37 0.00 82 1006.5
20260830010505 61 256 18.0 38.0 0.00 1.37 0.00 82 1006.4
20260830010006 60 245 25.0 38.0 0.00 1.38 0.00 81 1006.4
20260830003506 59 251 22.0 32.0 0.00 1.40 0.00 82 1006.7
20260830002006 60 241 18.0 31.0 0.00 1.43 0.00 86 1007.0
20260830000505 60 248 20.0 30.0 0.00 1.43 0.00 83 1007.0